Location: Unspecified
(45.6669°N, 0.0000°E)
Time: 07:59:34
(UTC+00:00)

ISS - Pass Details

Date: 20 May 2019
Orbit: 407 x 419 km, 51.6° (Epoch: 26 June)

Event Time Altitude Azimuth Distance (km) Brightness Sun altitude
Rises 22:09:21 0° 271° (W) 2,355 0.4 -19.9°
Reaches altitude 10° 22:11:34 10° 281° (W) 1,496 -0.5 -20.1°
Maximum altitude 22:14:39 33° 348° (NNW) 723 -2.0 -20.3°
Drops below altitude 10° 22:17:46 10° 55° (NE) 1,505 -0.8 -20.5°
Enters shadow 22:22:02 -6° 70° (ENE) 3,184 0.7 -20.8°
